Location: Newark
(34.3481°N, 134.0494°E)
Time: 16:37:55
(UTC+00:00)

A-11 Canister half - Visible Passes

Search period start: 22 January 2020 00:00
Search period end: 01 February 2020 00:00
Orbit: 1517 x 1683 km, 47.2° (Epoch: 22 January)

Date Brightness Start Highest point End Pass type
(mag) Time Alt. Az. Time Alt. Az. Time Alt. Az.
22 Jan 10.5 17:56:50 25° NE 17:56:50 25° NE 18:00:47 10° ENE visible
22 Jan 9.5 19:55:01 31° NNW 19:59:09 46° NNE 20:08:04 10° E visible
23 Jan 10.7 17:35:11 19° NE 17:35:11 19° NE 17:37:46 10° ENE visible
23 Jan 9.5 19:33:23 37° NNW 19:36:09 45° NNE 19:45:01 10° E visible
23 Jan 9.1 21:32:25 10° NW 21:41:42 81° SW 21:51:11 10° SE visible
24 Jan 11.0 17:13:33 14° NE 17:13:33 14° NE 17:14:47 10° ENE visible
24 Jan 9.5 19:11:45 41° N 19:13:10 44° NNE 19:21:57 10° E visible
24 Jan 9.0 21:09:57 12° NW 21:18:48 86° SW 21:28:17 10° SE visible
25 Jan 9.6 18:50:10 42° NNE 18:50:10 42° NNE 18:58:53 10° E visible
25 Jan 9.0 20:48:22 18° NW 20:55:55 90° S 21:05:22 10° SE visible
26 Jan 9.8 18:28:36 39° NE 18:28:36 39° NE 18:35:50 10° E visible
26 Jan 8.9 20:26:49 25° NW 20:33:00 86° NE 20:42:26 10° SE visible
27 Jan 10.8 11:39:05 10° S 11:40:27 14° S 11:40:27 14° S visible
27 Jan 10.1 18:07:05 33° NE 18:07:05 33° NE 18:12:47 10° E visible
27 Jan 8.9 20:05:18 34° NW 20:10:05 82° NE 20:19:30 10° ESE visible
28 Jan 10.5 11:16:28 10° S 11:19:22 19° SSE 11:19:22 19° SSE visible
28 Jan 10.4 17:45:37 26° ENE 17:45:37 26° ENE 17:49:43 10° ENE visible
28 Jan 8.9 19:43:50 45° NW 19:47:11 78° NE 19:56:33 10° ESE visible
29 Jan 10.2 10:53:53 10° S 10:58:19 22° SSE 10:58:19 22° SSE visible
29 Jan 11.1 12:55:51 10° SW 12:56:34 13° SW 12:56:34 13° SW visible
29 Jan 10.8 17:24:12 19° ENE 17:24:12 19° ENE 17:26:40 10° ENE visible
29 Jan 8.9 19:22:25 60° NNW 19:24:15 74° NNE 19:33:36 10° ESE visible
29 Jan 9.6 21:20:38 10° WNW 21:28:37 36° SW 21:36:54 10° SSE visible
30 Jan 10.1 10:31:20 10° S 10:37:17 23° SE 10:37:17 23° SE visible
30 Jan 10.6 12:32:55 10° SW 12:35:32 21° SW 12:35:32 21° SW visible
30 Jan 11.1 17:02:50 13° ENE 17:02:50 13° ENE 17:03:37 10° ENE visible
30 Jan 8.9 19:01:03 71° NNE 19:01:19 71° NNE 19:10:38 10° ESE visible
30 Jan 9.5 20:59:16 17° WNW 21:05:47 38° SW 21:14:12 10° SSE visible
31 Jan 10.0 10:08:49 10° S 10:15:43 22° SE 10:16:16 22° ESE visible
31 Jan 10.1 12:10:01 10° SW 12:14:32 32° SW 12:14:32 32° SW visible
31 Jan 9.2 18:39:45 61° ENE 18:39:45 61° ENE 18:47:39 10° ESE visible
31 Jan 9.4 20:37:58 24° W 20:42:56 41° SW 20:51:30 10° SSE visible
